Погода в Благовещенске

Погода в Благовещенске : погода сейчас, прогноз погоды и архив. Всё, что Вы хотите узнать о погоде в Благовещенске!

Хотите узнать прогноз погоды в Благовещенске? Тогда Вам сюда: Погода в Благовещенске

Поиск расширенной информации на нашем сайте:

Другие новости

Новости СМИ2

Главная страница сайта

Новости сайта

03.07.2017

Напоминаем, что на нашем специализированном сайте Метеоцентр.Азия вы можете получить высокодетализированные автоматические прогнозы погоды по пунктам России, СНГ и мира в авиационном формате (включающие направление и скорость ветра, видимость, явления погоды, количество и форму облачности, нижнюю и верхнюю границу облачности).


Погода в Благовещенске - сегодня

Время (UTC), дата Ветер
(°,м/с) 
Видим.   Явления Облачность Т
(°С)
Тd
(°С)
f(%) Тe
(°С)
Pmin
(гПа)
dP
(гПа)
Po
(мм)
O2
(г/м3)
Тmin Tmax R s Состояние
почвы
21 19.07.17 280 (З) 20000 м    ясно 
+14.6 +8.7 68 +15  1004.5  1.4  739  281           
00 20.07.17 290 (З) 20000 м    8/0 верхняя 
[Ci fib]
+19.8 +10 53 +22  1004.9  0.7  739  276  +13.5        сухая 
03 20.07.17 300 (СЗ) 4{10}  20000 м    3/0 верхняя 
[Ci fib]
+24.9 +9.6 38 +26  1003.7  -0.8  738  271           
06 20.07.17 330 (СЗ) 3{10}  20000 м    6/3 1000 м верхняя 
[Cu hum|Ci]
+26.6 +6.5 28 +27  1003.5  -0.1  738  270           
09 20.07.17 010 (С) 20000 м    4/4 1000 м 
[Sc diur, vesp]
+25.4 +8.4 34 +25  1003.8  0.2  739  271           
12 20.07.17 280 (З) 20000 м    4/0 средняя, верхняя 
[Ac lent|Cc]
+18.6 +10.9 61 +23  1005.3  1.1  739  277    +27.3       
15 20.07.17 300 (СЗ) н/о    ясно 
+15.5 +11.1 75 +19  1006.1  0.5  740  280           
18 20.07.17 290 (З) н/о    ясно 
+13.5 +10.4 82 +15  1006.4  0.2  740  282           
21 20.07.17 290 (З) н/о    ясно 
+13.9 +9.8 76 +15  1007.5  1.1  741  282           
00 21.07.17 320 (СЗ) 20000 м    ясно 
+20.8 +12.2 58 +25  1008.2  1.1  742  275  +12.8        сухая 
03 21.07.17 280 (З) 20000 м    1/1 1000 м 
[Cu med, cong]
+25.8 +12.9 45 +31  1008.1  0.3  742  271           
06 21.07.17 320 (СЗ) 20000 м    6/6 1000 м 
[Cu med, cong]
+28.4 +10.7 33 +31  1007.7  -0.3  742  269           
09 21.07.17 300 (СЗ) 20000 м    3/3 1000 м верхняя 
[Cu med, cong|Ci ing]
+28.2 +11.1 35 +31  1007.5  -0.2  741  269           
12 21.07.17 270 (З) 20000 м    1/0 верхняя 
[Ci fib]
+21.5 +15.5 69 +31  1008.4  0.5  742  274    +28.9       
15 21.07.17 280 (З) н/о    ясно 
+18.6 +13 70 +25  1008.9  0.3  742  277           
18 21.07.17 290 (З) н/о    ясно 
+16.3 +11.8 75 +21  1009.2  0.1  742  280           
21 21.07.17 тихо ()   20000 м    10/0 средняя 
[Ac As]
+15.8 +12.3 80 +20  1008.6  -0.6  742  280           
00 22.07.17 210 (ЮЗ) 20000 м    10/10 600 м кучево-дожд. 
[Cb cap]
+18.9 +13.9 73 +27  1007.9  -0.4  741  277  +15.5        сухая 
03 22.07.17 110 (В) 20000 м  в посл. час ливневой дождь  10/10 600 м кучево-дожд. 
[Cb cap]
+17.9 +16.1 89 +30  1006.2  -1.7  740  276           
06 22.07.17 180 (Ю) 20000 м  {ливн. осадки}  4/4 600 м кучево-дожд. 
[Cb cap]
+25.1 +17.9 64 +40  1003.5  -2.2  738  268           
09 22.07.17 340 (С) 20000 м    10/10 600 м кучево-дожд. 
[Cb cap]
+23.4 +18.8 75 +40  1002.7  -0.9  738  269           
12 22.07.17 280 (З) 20000 м  слаб. ливневой дождь  10/10 600 м кучево-дожд. 
[Cb cap]
+19.1 +13.8 71 +27  1002.9  -0.1  738  275    +26.4     
15 22.07.17 270 (З) н/о  {ливн. осадки}  3/0 средняя 
[Ac trans]
+15.2 +13.7 91 +24  1002.2  -1  737  278           
18 22.07.17 290 (З) н/о  {ливн. осадки}  ясно 
+14.1 +12.7 91 +19  1001.6  -0.6  736  280           
21 22.07.17 310 (СЗ) 20000 м    4/0 верхняя 
[Ci fib]
+14.3 +12.8 91 +21  1001.9  0.3  737  279           
Время (UTC), дата Ветер
(°,м/с) 
Видим.   Явления Облачность Т
(°С)
Тd
(°С)
f(%) Тe
(°С)
Pmin
(гПа)
dP
(гПа)
Po
(мм)
O2
(г/м3)
Тmin Tmax R s Состояние
почвы

Для получения пояснительной информации подведите курсор к названию столбца.

ПОГОДА в Благовещенске - архив

Всё, что Вы хотите узнать о погоде в Благовещенске - удобно и подробно!

Выберите нужную дату (начиная с 1 января 2015* года) и нажмите кнопку "Найти".
Будут отображены архивные сводки погоды по пункту Благовещенск, начиная с указанной даты.


Отображать данные в формате CSV (для использования в таблицах Excel)


Внимание! Наш архив погоды предназначен исключительно для личного некоммерческого использования в познавательных целях. Если Вам необходимы официальные справки о состоянии погоды (для производственных, юридических, коммерческих и т.п. целей), обращайтесь в органы Росгидромета.

*Примечание: данная дата относится к архиву по метеостанциям СССР (Россия, СНГ, Балтия).
Архив по метеостанциям Зарубежной Европы и Азии (кроме Китая) хранится 10 дней, по другим регионам земного шара (Китай, Африка, Америка, Австралия, Океания) - 1 день.

Благовещенск - район местоположения метеостанции


Название, широта, долгота, высота метеостанции:
Благовещенск 50.2°ш. 127.6°д. 132 м над ур. моря [Российская Федерация]

Дополнительная информация

В oтличие oт бoльшинства пoгoдных сайтoв мы публикуем пoдрoбную метеoинфoрмацию в детальнoм прoфессиoнальнoм фoрмате.

Характеристики температуры и влажнoсти вoздуха измеряются на высoте 2 м в тени вдали oт зданий и деревьев.
Скoрoсть ветра измеряется на высoте 10 м (на урoвне рoста челoвека скoрoсть ветра ниже в 1.5-2 раза). Если метеoстанция нахoдится в гoрoде или в лесу, тo скoрoсть ветра занижена на 2-4 м/с пo сравнению с oткрытым местoм. Скoрoсть ветра над акватoриями крупных рек и oзёр, а также на вершинах хoлмoв на 2-5 м/с выше, чем в oбычных услoвиях.
Атмoсфернoе давление в разных тoчках местнoсти мoжет значительнo oтличаться oт давления на метеoстанции, в зависимoсти oт услoвий рельефа (при пoдъёме на 10 м давление пoнижается примернo на 1 мм рт.ст.).